Voltar ao catálogo

COSMOS 249 DEB *

AtivoLEO
NORAD 3679·DEBRIS·🇷🇺 Russia

Lançado Oct 20, 1968 de Baikonur Cosmodrome

Loading…

Próximas Passagens (próximas 24 horas)

TLE

AtualizadoSource: Space-Track

Época: Sep 14, 2026, 12:26 UTC

1 03679U 68091AE  26257.51820564  .00001236  00000-0  35049-3 0  9998
2 03679  62.7504  74.8446 0468781 260.2909  94.4909 14.00760604796944

Acompanhe COSMOS 249 DEB * em tempo real com AllMySat

Download on the App Store